Location: Austin
(30.3000°N, 97.7500°W)
Time: 02:24:28
(UTC-05:00)

SL-16 R/B - Pass Details

Date: 15 May 2024
Orbit: 839 x 849 km, 71.0° (Epoch: 29 May)

Event Time Altitude Azimuth Distance (km) Brightness Sun altitude
Exits shadow 23:53:34 20° 273° (W) 1,851 4.2 -35.6°
Maximum altitude 23:55:17 23° 298° (WNW) 1,719 4.2 -35.8°
Drops below altitude 10° 23:59:42 10° 350° (N) 2,468 5.3 -36.2°
Sets 00:02:41 0° 4° (N) 3,408 6.1 -36.5°
